Time,TemperatureF,DewpointF,PressureIn,WindDirection,WindDirectionDegrees,WindSpeedMPH,WindSpeedGustMPH,Humidity,HourlyPrecipIn,Conditions,Clouds,dailyrainin,SoftwareType,DateUTC
2013-05-08 00:01:00,50.4,50.4,30.06,North,355,0.0,0.0,100,0.00,,,0.00,Wunderground v.1.15,2013-05-08 04:01:00,
2013-05-08 00:06:00,50.4,50.4,30.07,North,355,0.0,0.0,100,0.00,,,0.00,Wunderground v.1.15,2013-05-08 04:06:00,
2013-05-08 00:11:00,50.4,50.4,30.07,North,355,1.0,1.0,100,0.00,,,0.00,Wunderground v.1.15,2013-05-08 04:11:00,
2013-05-08 00:16:00,50.5,50.5,30.07,North,355,0.0,2.0,100,0.00,,,0.00,Wunderground v.1.15,2013-05-08 04:16:00,
2013-05-08 00:21:00,50.6,50.6,30.07,North,355,0.0,1.0,100,0.00,,,0.00,Wunderground v.1.15,2013-05-08 04:21:00,
2013-05-08 00:26:00,50.6,50.6,30.07,North,355,0.0,1.0,100,0.00,,,0.00,Wunderground v.1.15,2013-05-08 04:26:00,
2013-05-08 00:31:00,50.7,50.7,30.07,North,355,0.0,0.0,100,0.00,,,0.00,Wunderground v.1.15,2013-05-08 04:31:00,
2013-05-08 00:36:00,50.6,50.6,30.07,North,355,0.0,0.0,100,0.00,,,0.00,Wunderground v.1.15,2013-05-08 04:36:00,
2013-05-08 00:41:00,50.6,50.6,30.06,North,355,0.0,0.0,100,0.00,,,0.00,Wunderground v.1.15,2013-05-08 04:41:00,
2013-05-08 00:46:00,50.5,50.5,30.07,North,355,0.0,0.0,100,0.00,,,0.00,Wunderground v.1.15,2013-05-08 04:46:00,
2013-05-08 00:51:00,50.4,50.4,30.07,North,355,0.0,0.0,100,0.00,,,0.00,Wunderground v.1.15,2013-05-08 04:51:00,
2013-05-08 00:56:00,50.3,50.3,30.07,North,355,0.0,0.0,100,0.00,,,0.00,Wunderground v.1.15,2013-05-08 04:56:00,
2013-05-08 01:01:00,50.3,50.3,30.07,North,355,0.0,0.0,100,0.00,,,0.00,Wunderground v.1.15,2013-05-08 05:01:00,
2013-05-08 01:06:00,50.2,50.2,30.07,North,355,0.0,0.0,100,0.00,,,0.00,Wunderground v.1.15,2013-05-08 05:06:00,
2013-05-08 01:11:00,50.1,50.1,30.07,North,355,0.0,0.0,100,0.00,,,0.00,Wunderground v.1.15,2013-05-08 05:11:00,
2013-05-08 01:16:00,50.0,50.0,30.07,North,355,0.0,0.0,100,0.00,,,0.00,Wunderground v.1.15,2013-05-08 05:16:00,
2013-05-08 01:21:00,49.9,49.9,30.07,North,355,0.0,0.0,100,0.00,,,0.00,Wunderground v.1.15,2013-05-08 05:21:00,
2013-05-08 01:26:00,49.8,49.8,30.07,North,355,0.0,0.0,100,0.00,,,0.00,Wunderground v.1.15,2013-05-08 05:26:00,
2013-05-08 01:31:00,49.8,49.8,30.07,North,355,0.0,0.0,100,0.00,,,0.00,Wunderground v.1.15,2013-05-08 05:31:00,
2013-05-08 01:36:00,49.7,49.7,30.07,North,355,0.0,0.0,100,0.00,,,0.00,Wunderground v.1.15,2013-05-08 05:36:00,
2013-05-08 01:41:00,49.7,49.7,30.07,North,355,0.0,0.0,100,0.00,,,0.00,Wunderground v.1.15,2013-05-08 05:41:00,
2013-05-08 01:46:00,49.7,49.7,30.07,North,355,0.0,0.0,100,0.00,,,0.00,Wunderground v.1.15,2013-05-08 05:46:00,
2013-05-08 01:51:00,49.8,49.8,30.06,North,355,0.0,0.0,100,0.00,,,0.00,Wunderground v.1.15,2013-05-08 05:51:00,
2013-05-08 01:56:00,49.8,49.8,30.06,North,355,0.0,0.0,100,0.00,,,0.00,Wunderground v.1.15,2013-05-08 05:56:00,
2013-05-08 02:01:00,49.9,49.9,30.06,North,355,0.0,0.0,100,0.00,,,0.01,Wunderground v.1.15,2013-05-08 06:01:00,
2013-05-08 02:06:00,49.9,49.9,30.06,North,355,0.0,0.0,100,0.00,,,0.01,Wunderground v.1.15,2013-05-08 06:06:00,
2013-05-08 02:11:00,49.9,49.9,30.06,North,355,0.0,0.0,100,0.00,,,0.01,Wunderground v.1.15,2013-05-08 06:11:00,
2013-05-08 02:16:00,49.9,49.9,30.06,North,355,0.0,0.0,100,0.00,,,0.01,Wunderground v.1.15,2013-05-08 06:16:00,
2013-05-08 02:21:00,49.9,49.9,30.05,North,355,0.0,0.0,100,0.00,,,0.01,Wunderground v.1.15,2013-05-08 06:21:00,
2013-05-08 02:26:00,49.9,49.9,30.05,North,355,0.0,0.0,100,0.00,,,0.01,Wunderground v.1.15,2013-05-08 06:26:00,
2013-05-08 02:31:00,50.0,50.0,30.05,North,355,0.0,0.0,100,0.00,,,0.01,Wunderground v.1.15,2013-05-08 06:31:00,
2013-05-08 02:36:00,50.0,50.0,30.05,North,355,0.0,0.0,100,0.00,,,0.01,Wunderground v.1.15,2013-05-08 06:36:00,
2013-05-08 02:41:00,50.1,50.1,30.05,North,355,0.0,0.0,100,0.00,,,0.01,Wunderground v.1.15,2013-05-08 06:41:00,
2013-05-08 02:46:00,50.1,50.1,30.05,North,355,0.0,0.0,100,0.00,,,0.01,Wunderground v.1.15,2013-05-08 06:46:00,
2013-05-08 02:51:00,50.2,50.2,30.05,North,355,0.0,0.0,100,0.00,,,0.01,Wunderground v.1.15,2013-05-08 06:51:00,
2013-05-08 02:56:00,50.2,50.2,30.05,North,355,0.0,0.0,100,0.00,,,0.01,Wunderground v.1.15,2013-05-08 06:56:00,
2013-05-08 03:01:00,50.1,50.1,30.04,North,355,0.0,0.0,100,0.00,,,0.01,Wunderground v.1.15,2013-05-08 07:01:00,
2013-05-08 03:06:00,50.1,50.1,30.04,North,355,0.0,0.0,100,0.00,,,0.01,Wunderground v.1.15,2013-05-08 07:06:00,
2013-05-08 03:11:00,50.1,50.1,30.04,North,355,0.0,0.0,100,0.00,,,0.01,Wunderground v.1.15,2013-05-08 07:11:00,
2013-05-08 03:16:00,50.1,50.1,30.04,North,355,0.0,0.0,100,0.00,,,0.01,Wunderground v.1.15,2013-05-08 07:16:00,
2013-05-08 03:21:00,50.1,50.1,30.04,North,355,0.0,0.0,100,0.00,,,0.01,Wunderground v.1.15,2013-05-08 07:21:00,
2013-05-08 03:26:00,50.1,50.1,30.04,North,355,0.0,0.0,100,0.00,,,0.01,Wunderground v.1.15,2013-05-08 07:26:00,
2013-05-08 03:31:00,50.0,50.0,30.04,North,355,0.0,0.0,100,0.00,,,0.01,Wunderground v.1.15,2013-05-08 07:31:00,
2013-05-08 03:36:00,50.0,50.0,30.04,North,355,0.0,0.0,100,0.00,,,0.01,Wunderground v.1.15,2013-05-08 07:36:00,
2013-05-08 03:41:00,49.9,49.9,30.04,North,355,0.0,0.0,100,0.00,,,0.01,Wunderground v.1.15,2013-05-08 07:41:00,
2013-05-08 03:46:00,49.8,49.8,30.04,North,355,0.0,0.0,100,0.00,,,0.01,Wunderground v.1.15,2013-05-08 07:46:00,
2013-05-08 03:51:00,49.7,49.7,30.04,North,355,0.0,0.0,100,0.00,,,0.01,Wunderground v.1.15,2013-05-08 07:51:00,
2013-05-08 03:56:00,49.7,49.7,30.04,North,355,0.0,0.0,100,0.00,,,0.01,Wunderground v.1.15,2013-05-08 07:56:00,
2013-05-08 04:01:00,49.6,49.6,30.04,North,355,0.0,0.0,100,0.00,,,0.01,Wunderground v.1.15,2013-05-08 08:01:00,
2013-05-08 04:06:00,49.5,49.5,30.04,North,355,0.0,0.0,100,0.00,,,0.01,Wunderground v.1.15,2013-05-08 08:06:00,
2013-05-08 04:11:00,49.4,49.4,30.04,North,355,0.0,0.0,100,0.00,,,0.01,Wunderground v.1.15,2013-05-08 08:11:00,
2013-05-08 04:16:00,49.2,49.2,30.04,North,355,0.0,0.0,100,0.00,,,0.01,Wunderground v.1.15,2013-05-08 08:16:00,
2013-05-08 04:21:00,49.0,49.0,30.04,North,355,0.0,0.0,100,0.00,,,0.01,Wunderground v.1.15,2013-05-08 08:21:00,
2013-05-08 04:26:00,48.9,48.9,30.05,North,355,0.0,0.0,100,0.00,,,0.01,Wunderground v.1.15,2013-05-08 08:26:00,
2013-05-08 04:31:00,48.7,48.7,30.05,North,355,0.0,0.0,100,0.00,,,0.01,Wunderground v.1.15,2013-05-08 08:31:00,
2013-05-08 04:36:00,48.6,48.6,30.05,North,355,0.0,0.0,100,0.00,,,0.01,Wunderground v.1.15,2013-05-08 08:36:00,
2013-05-08 04:41:00,48.4,48.4,30.05,North,355,0.0,0.0,100,0.00,,,0.01,Wunderground v.1.15,2013-05-08 08:41:00,
2013-05-08 04:46:00,48.3,48.3,30.05,North,355,0.0,0.0,100,0.00,,,0.01,Wunderground v.1.15,2013-05-08 08:46:00,
2013-05-08 04:51:00,48.2,48.2,30.05,North,355,0.0,0.0,100,0.00,,,0.01,Wunderground v.1.15,2013-05-08 08:51:00,
2013-05-08 04:56:00,48.1,48.1,30.05,North,355,0.0,0.0,100,0.00,,,0.01,Wunderground v.1.15,2013-05-08 08:56:00,
2013-05-08 05:01:00,48.1,48.1,30.05,North,355,0.0,0.0,100,0.00,,,0.01,Wunderground v.1.15,2013-05-08 09:01:00,
2013-05-08 05:06:00,48.1,48.1,30.05,North,355,0.0,0.0,100,0.00,,,0.01,Wunderground v.1.15,2013-05-08 09:06:00,
2013-05-08 05:11:00,48.1,48.1,30.05,North,355,0.0,0.0,100,0.00,,,0.01,Wunderground v.1.15,2013-05-08 09:11:00,
2013-05-08 05:16:00,47.9,47.9,30.05,North,355,0.0,0.0,100,0.00,,,0.01,Wunderground v.1.15,2013-05-08 09:16:00,
2013-05-08 05:21:00,47.9,47.9,30.05,North,355,0.0,0.0,100,0.00,,,0.01,Wunderground v.1.15,2013-05-08 09:21:00,
2013-05-08 05:26:00,47.7,47.7,30.06,North,355,0.0,0.0,100,0.00,,,0.01,Wunderground v.1.15,2013-05-08 09:26:00,
2013-05-08 05:31:00,47.6,47.6,30.06,North,355,0.0,0.0,100,0.00,,,0.01,Wunderground v.1.15,2013-05-08 09:31:00,
2013-05-08 05:36:00,47.6,47.6,30.05,North,355,0.0,0.0,100,0.00,,,0.01,Wunderground v.1.15,2013-05-08 09:36:00,
2013-05-08 05:41:00,47.7,47.7,30.05,North,355,0.0,0.0,100,0.00,,,0.01,Wunderground v.1.15,2013-05-08 09:41:00,
2013-05-08 05:46:00,47.7,47.7,30.06,North,355,0.0,1.0,100,0.00,,,0.01,Wunderground v.1.15,2013-05-08 09:46:00,
2013-05-08 05:51:00,47.9,47.9,30.05,North,355,0.0,0.0,100,0.00,,,0.01,Wunderground v.1.15,2013-05-08 09:51:00,
2013-05-08 05:56:00,47.9,47.9,30.05,North,355,0.0,0.0,100,0.00,,,0.01,Wunderground v.1.15,2013-05-08 09:56:00,
2013-05-08 06:01:00,48.0,48.0,30.05,North,355,0.0,0.0,100,0.00,,,0.01,Wunderground v.1.15,2013-05-08 10:01:00,
2013-05-08 06:06:00,48.0,48.0,30.06,North,355,0.0,0.0,100,0.00,,,0.01,Wunderground v.1.15,2013-05-08 10:06:00,
2013-05-08 06:11:00,47.9,47.9,30.06,North,355,0.0,0.0,100,0.00,,,0.01,Wunderground v.1.15,2013-05-08 10:11:00,
2013-05-08 06:16:00,47.9,47.9,30.06,North,355,0.0,0.0,100,0.00,,,0.01,Wunderground v.1.15,2013-05-08 10:16:00,
2013-05-08 06:21:00,47.9,47.9,30.05,North,355,0.0,0.0,100,0.00,,,0.01,Wunderground v.1.15,2013-05-08 10:21:00,
2013-05-08 06:26:00,47.9,47.9,30.05,North,355,0.0,0.0,100,0.00,,,0.01,Wunderground v.1.15,2013-05-08 10:26:00,
2013-05-08 06:31:00,47.9,47.9,30.05,North,355,0.0,0.0,100,0.00,,,0.01,Wunderground v.1.15,2013-05-08 10:31:00,
2013-05-08 06:36:00,48.0,48.0,30.06,North,355,0.0,0.0,100,0.00,,,0.01,Wunderground v.1.15,2013-05-08 10:36:00,
2013-05-08 06:41:00,48.0,48.0,30.06,North,355,0.0,0.0,100,0.00,,,0.01,Wunderground v.1.15,2013-05-08 10:41:00,
2013-05-08 06:46:00,48.0,48.0,30.06,North,355,0.0,0.0,100,0.00,,,0.01,Wunderground v.1.15,2013-05-08 10:46:00,
2013-05-08 06:51:00,48.0,48.0,30.07,North,355,0.0,0.0,100,0.00,,,0.01,Wunderground v.1.15,2013-05-08 10:51:00,
2013-05-08 06:56:00,48.1,48.1,30.07,North,355,0.0,0.0,100,0.00,,,0.01,Wunderground v.1.15,2013-05-08 10:56:00,
2013-05-08 07:01:00,48.1,48.1,30.08,North,355,0.0,0.0,100,0.00,,,0.01,Wunderground v.1.15,2013-05-08 11:01:00,
2013-05-08 07:06:00,48.1,48.1,30.08,North,355,0.0,1.0,100,0.00,,,0.01,Wunderground v.1.15,2013-05-08 11:06:00,
2013-05-08 07:11:00,48.0,48.0,30.08,North,355,0.0,0.0,100,0.00,,,0.01,Wunderground v.1.15,2013-05-08 11:11:00,
2013-05-08 07:16:00,48.0,48.0,30.08,North,355,0.0,1.0,100,0.00,,,0.01,Wunderground v.1.15,2013-05-08 11:16:00,
2013-05-08 07:21:00,47.9,47.9,30.08,North,355,0.0,0.0,100,0.00,,,0.01,Wunderground v.1.15,2013-05-08 11:21:00,
2013-05-08 07:26:00,47.8,47.8,30.08,North,355,0.0,0.0,100,0.00,,,0.01,Wunderground v.1.15,2013-05-08 11:26:00,
2013-05-08 07:31:00,47.7,47.7,30.08,North,355,0.0,0.0,100,0.00,,,0.01,Wunderground v.1.15,2013-05-08 11:31:00,
2013-05-08 07:36:00,47.6,47.6,30.09,North,355,0.0,0.0,100,0.00,,,0.01,Wunderground v.1.15,2013-05-08 11:36:00,
2013-05-08 07:41:00,47.7,47.7,30.09,North,355,0.0,0.0,100,0.00,,,0.01,Wunderground v.1.15,2013-05-08 11:41:00,
2013-05-08 07:46:00,47.7,47.7,30.09,North,355,0.0,0.0,100,0.00,,,0.01,Wunderground v.1.15,2013-05-08 11:46:00,
2013-05-08 07:51:00,47.8,47.8,30.09,NNE,19,0.0,0.0,100,0.00,,,0.01,Wunderground v.1.15,2013-05-08 11:51:00,
2013-05-08 07:56:00,48.0,48.0,30.09,NNE,19,0.0,1.0,100,0.00,,,0.01,Wunderground v.1.15,2013-05-08 11:56:00,
2013-05-08 08:01:00,48.3,48.3,30.09,NNE,19,0.0,0.0,100,0.00,,,0.01,Wunderground v.1.15,2013-05-08 12:01:00,
2013-05-08 08:06:00,48.4,48.4,30.09,NNE,19,0.0,0.0,100,0.00,,,0.01,Wunderground v.1.15,2013-05-08 12:06:00,
2013-05-08 08:11:00,48.5,48.5,30.09,NNE,19,0.0,0.0,100,0.00,,,0.01,Wunderground v.1.15,2013-05-08 12:11:00,
2013-05-08 08:16:00,48.7,48.7,30.10,NNE,19,0.0,1.0,100,0.00,,,0.01,Wunderground v.1.15,2013-05-08 12:16:00,
2013-05-08 08:21:00,48.8,48.8,30.10,NNE,19,0.0,0.0,100,0.00,,,0.01,Wunderground v.1.15,2013-05-08 12:21:00,
2013-05-08 08:26:00,49.0,49.0,30.10,NNE,19,0.0,1.0,100,0.00,,,0.01,Wunderground v.1.15,2013-05-08 12:26:00,
2013-05-08 08:31:00,49.1,49.1,30.10,NNE,19,0.0,1.0,100,0.00,,,0.01,Wunderground v.1.15,2013-05-08 12:31:00,
2013-05-08 08:36:00,49.2,49.2,30.10,NNE,19,0.0,1.0,100,0.00,,,0.01,Wunderground v.1.15,2013-05-08 12:36:00,
2013-05-08 08:41:00,49.5,49.5,30.10,NNE,19,0.0,1.0,100,0.00,,,0.01,Wunderground v.1.15,2013-05-08 12:41:00,
2013-05-08 08:46:00,49.8,49.8,30.10,NNE,31,0.0,2.0,100,0.00,,,0.01,Wunderground v.1.15,2013-05-08 12:46:00,
2013-05-08 08:51:00,50.1,50.1,30.10,NE,34,1.0,1.0,100,0.00,,,0.01,Wunderground v.1.15,2013-05-08 12:51:00,
2013-05-08 08:56:00,50.2,50.2,30.10,SE,130,1.0,2.0,100,0.00,,,0.01,Wunderground v.1.15,2013-05-08 12:56:00,
2013-05-08 09:01:00,50.4,50.4,30.11,SE,129,0.0,0.0,100,0.00,,,0.01,Wunderground v.1.15,2013-05-08 13:01:00,
2013-05-08 09:06:00,50.7,50.7,30.10,SE,130,0.0,0.0,100,0.00,,,0.01,Wunderground v.1.15,2013-05-08 13:06:00,
2013-05-08 09:11:00,51.1,51.1,30.10,SE,130,0.0,1.0,100,0.00,,,0.01,Wunderground v.1.15,2013-05-08 13:11:00,
2013-05-08 09:16:00,51.3,51.3,30.11,SE,129,0.0,1.0,100,0.00,,,0.01,Wunderground v.1.15,2013-05-08 13:16:00,
2013-05-08 09:21:00,51.3,51.3,30.11,SE,130,0.0,1.0,100,0.00,,,0.01,Wunderground v.1.15,2013-05-08 13:21:00,
2013-05-08 09:26:00,51.5,51.5,30.11,SE,130,0.0,1.0,100,0.00,,,0.01,Wunderground v.1.15,2013-05-08 13:26:00,
2013-05-08 09:31:00,51.7,51.7,30.11,SE,130,0.0,0.0,100,0.00,,,0.01,Wunderground v.1.15,2013-05-08 13:31:00,
2013-05-08 09:36:00,51.9,51.9,30.11,SE,129,0.0,1.0,100,0.00,,,0.01,Wunderground v.1.15,2013-05-08 13:36:00,
2013-05-08 09:41:00,52.2,52.2,30.11,SE,130,0.0,0.0,100,0.00,,,0.01,Wunderground v.1.15,2013-05-08 13:41:00,
2013-05-08 09:46:00,52.3,52.3,30.11,SE,130,0.0,0.0,100,0.00,,,0.01,Wunderground v.1.15,2013-05-08 13:46:00,
2013-05-08 09:51:00,52.6,52.6,30.11,SE,130,0.0,0.0,100,0.00,,,0.01,Wunderground v.1.15,2013-05-08 13:51:00,
2013-05-08 09:56:00,52.9,52.9,30.11,SE,130,0.0,0.0,100,0.00,,,0.01,Wunderground v.1.15,2013-05-08 13:56:00,
2013-05-08 10:01:00,53.2,53.2,30.11,SE,130,0.0,0.0,100,0.00,,,0.01,Wunderground v.1.15,2013-05-08 14:01:00,
2013-05-08 10:06:00,53.4,53.4,30.11,SE,130,0.0,0.0,100,0.00,,,0.01,Wunderground v.1.15,2013-05-08 14:06:00,
2013-05-08 10:11:00,53.6,53.6,30.11,SE,129,0.0,0.0,100,0.00,,,0.01,Wunderground v.1.15,2013-05-08 14:11:00,
2013-05-08 10:16:00,53.8,53.8,30.11,SE,130,0.0,0.0,100,0.00,,,0.01,Wunderground v.1.15,2013-05-08 14:16:00,
2013-05-08 10:21:00,54.0,54.0,30.11,SE,129,0.0,0.0,100,0.00,,,0.01,Wunderground v.1.15,2013-05-08 14:21:00,
2013-05-08 10:26:00,54.2,54.2,30.11,SE,130,0.0,0.0,100,0.00,,,0.01,Wunderground v.1.15,2013-05-08 14:26:00,
2013-05-08 10:32:00,54.4,54.4,30.11,SE,129,0.0,0.0,100,0.00,,,0.01,Wunderground v.1.15,2013-05-08 14:32:00,
2013-05-08 10:37:00,54.6,54.6,30.11,SE,130,0.0,0.0,100,0.00,,,0.01,Wunderground v.1.15,2013-05-08 14:37:00,
2013-05-08 10:42:00,54.8,54.8,30.11,SE,130,0.0,0.0,100,0.00,,,0.01,Wunderground v.1.15,2013-05-08 14:42:00,
2013-05-08 10:47:00,55.1,55.1,30.11,SE,130,0.0,0.0,100,0.00,,,0.01,Wunderground v.1.15,2013-05-08 14:47:00,
2013-05-08 10:52:00,55.6,55.6,30.11,SE,130,0.0,1.0,100,0.00,,,0.01,Wunderground v.1.15,2013-05-08 14:52:00,
2013-05-08 10:57:00,56.1,56.1,30.11,SE,129,0.0,2.0,100,0.00,,,0.01,Wunderground v.1.15,2013-05-08 14:57:00,
2013-05-08 11:02:00,56.8,56.8,30.11,SE,129,1.0,2.0,100,0.00,,,0.01,Wunderground v.1.15,2013-05-08 15:02:00,
2013-05-08 11:07:00,57.4,56.8,30.11,NE,39,0.0,3.0,98,0.00,,,0.01,Wunderground v.1.15,2013-05-08 15:07:00,
2013-05-08 11:11:00,57.9,56.8,30.11,NE,39,0.0,1.0,96,0.00,,,0.01,Wunderground v.1.15,2013-05-08 15:11:00,
2013-05-08 11:16:00,58.3,56.9,30.11,NE,39,0.0,2.0,95,0.00,,,0.01,Wunderground v.1.15,2013-05-08 15:16:00,
2013-05-08 11:21:00,58.8,56.8,30.11,NE,39,0.0,0.0,93,0.00,,,0.01,Wunderground v.1.15,2013-05-08 15:21:00,
2013-05-08 11:27:00,58.8,57.1,30.11,NE,39,0.0,1.0,94,0.00,,,0.01,Wunderground v.1.15,2013-05-08 15:27:00,
2013-05-08 11:32:00,59.4,56.8,30.11,NE,39,0.0,1.0,91,0.00,,,0.01,Wunderground v.1.15,2013-05-08 15:32:00,
2013-05-08 11:37:00,59.5,56.9,30.11,NE,39,0.0,1.0,91,0.00,,,0.01,Wunderground v.1.15,2013-05-08 15:37:00,
2013-05-08 11:42:00,59.5,56.9,30.11,NE,39,0.0,0.0,91,0.00,,,0.01,Wunderground v.1.15,2013-05-08 15:42:00,
2013-05-08 11:47:00,59.7,56.8,30.11,NE,39,0.0,0.0,90,0.00,,,0.01,Wunderground v.1.15,2013-05-08 15:47:00,
2013-05-08 11:52:00,60.0,57.4,30.11,NE,39,0.0,1.0,91,0.00,,,0.01,Wunderground v.1.15,2013-05-08 15:52:00,
2013-05-08 11:57:00,60.3,57.4,30.11,NE,39,0.0,1.0,90,0.00,,,0.01,Wunderground v.1.15,2013-05-08 15:57:00,
2013-05-08 12:02:00,60.5,56.9,30.11,NE,39,0.0,1.0,88,0.00,,,0.01,Wunderground v.1.15,2013-05-08 16:02:00,
2013-05-08 12:07:00,60.7,57.7,30.11,NE,39,0.0,2.0,90,0.00,,,0.01,Wunderground v.1.15,2013-05-08 16:07:00,
2013-05-08 12:12:00,61.0,57.7,30.11,NE,39,2.0,3.0,89,0.00,,,0.01,Wunderground v.1.15,2013-05-08 16:12:00,
2013-05-08 12:17:00,61.3,58.0,30.11,NE,39,0.0,3.0,89,0.00,,,0.01,Wunderground v.1.15,2013-05-08 16:17:00,
2013-05-08 12:22:00,61.6,58.0,30.11,NE,39,0.0,1.0,88,0.00,,,0.01,Wunderground v.1.15,2013-05-08 16:22:00,
2013-05-08 12:27:00,61.7,57.8,30.11,NE,39,0.0,1.0,87,0.00,,,0.01,Wunderground v.1.15,2013-05-08 16:27:00,
2013-05-08 12:32:00,61.6,57.7,30.11,NE,39,0.0,0.0,87,0.00,,,0.01,Wunderground v.1.15,2013-05-08 16:32:00,
2013-05-08 12:37:00,61.6,57.7,30.11,NE,39,0.0,1.0,87,0.00,,,0.01,Wunderground v.1.15,2013-05-08 16:37:00,
2013-05-08 12:42:00,61.6,57.0,30.11,NE,39,0.0,0.0,85,0.00,,,0.01,Wunderground v.1.15,2013-05-08 16:42:00,
2013-05-08 12:47:00,61.5,57.6,30.11,NE,39,0.0,0.0,87,0.00,,,0.01,Wunderground v.1.15,2013-05-08 16:47:00,
2013-05-08 12:52:00,61.6,57.7,30.11,NE,39,0.0,0.0,87,0.00,,,0.01,Wunderground v.1.15,2013-05-08 16:52:00,
2013-05-08 12:57:00,62.2,58.3,30.10,NE,39,0.0,2.0,87,0.00,,,0.01,Wunderground v.1.15,2013-05-08 16:57:00,
2013-05-08 13:02:00,62.9,58.6,30.10,South,189,1.0,2.0,86,0.00,,,0.01,Wunderground v.1.15,2013-05-08 17:02:00,
2013-05-08 13:07:00,63.4,58.5,30.10,SSE,159,0.0,3.0,84,0.00,,,0.01,Wunderground v.1.15,2013-05-08 17:07:00,
2013-05-08 13:12:00,63.6,58.7,30.10,SSE,159,0.0,2.0,84,0.00,,,0.01,Wunderground v.1.15,2013-05-08 17:12:00,
2013-05-08 13:17:00,63.6,58.0,30.10,SSE,159,0.0,2.0,82,0.00,,,0.01,Wunderground v.1.15,2013-05-08 17:17:00,
2013-05-08 13:22:00,63.4,58.1,30.10,NNE,17,1.0,1.0,83,0.00,,,0.01,Wunderground v.1.15,2013-05-08 17:22:00,
2013-05-08 13:27:00,63.2,57.6,30.10,NNE,17,0.0,1.0,82,0.00,,,0.01,Wunderground v.1.15,2013-05-08 17:27:00,
2013-05-08 13:32:00,63.3,58.4,30.10,NNE,23,1.0,3.0,84,0.00,,,0.01,Wunderground v.1.15,2013-05-08 17:32:00,
2013-05-08 13:37:00,63.5,58.2,30.10,East,96,1.0,4.0,83,0.00,,,0.01,Wunderground v.1.15,2013-05-08 17:37:00,
2013-05-08 13:42:00,63.4,57.1,30.10,East,96,0.0,1.0,80,0.00,,,0.01,Wunderground v.1.15,2013-05-08 17:42:00,
2013-05-08 13:47:00,63.3,57.4,30.10,East,96,0.0,1.0,81,0.00,,,0.01,Wunderground v.1.15,2013-05-08 17:47:00,
2013-05-08 13:52:00,63.1,57.9,30.10,East,96,0.0,0.0,83,0.00,,,0.01,Wunderground v.1.15,2013-05-08 17:52:00,
2013-05-08 13:57:00,62.9,58.0,30.10,East,96,1.0,1.0,84,0.00,,,0.01,Wunderground v.1.15,2013-05-08 17:57:00,
2013-05-08 14:02:00,62.9,57.3,30.10,East,96,0.0,0.0,82,0.00,,,0.01,Wunderground v.1.15,2013-05-08 18:02:00,
2013-05-08 14:07:00,63.1,58.2,30.10,East,96,0.0,1.0,84,0.00,,,0.01,Wunderground v.1.15,2013-05-08 18:07:00,
2013-05-08 14:12:00,63.4,58.8,30.10,East,96,1.0,1.0,85,0.00,,,0.01,Wunderground v.1.15,2013-05-08 18:12:00,
2013-05-08 14:17:00,63.7,58.1,30.10,East,96,2.0,2.0,82,0.00,,,0.01,Wunderground v.1.15,2013-05-08 18:17:00,
2013-05-08 14:22:00,63.9,58.0,30.10,ESE,104,1.0,2.0,81,0.00,,,0.01,Wunderground v.1.15,2013-05-08 18:22:00,
2013-05-08 14:27:00,64.1,58.5,30.10,ESE,104,1.0,2.0,82,0.00,,,0.01,Wunderground v.1.15,2013-05-08 18:27:00,
2013-05-08 14:32:00,64.3,58.7,30.10,SSW,192,1.0,2.0,82,0.00,,,0.01,Wunderground v.1.15,2013-05-08 18:32:00,
2013-05-08 14:37:00,64.5,58.5,30.10,SSW,192,0.0,2.0,81,0.00,,,0.01,Wunderground v.1.15,2013-05-08 18:37:00,
2013-05-08 14:42:00,64.4,58.1,30.09,SSW,192,0.0,0.0,80,0.00,,,0.01,Wunderground v.1.15,2013-05-08 18:42:00,
2013-05-08 14:47:00,64.4,58.8,30.10,SSW,192,0.0,0.0,82,0.00,,,0.01,Wunderground v.1.15,2013-05-08 18:47:00,
2013-05-08 14:52:00,64.4,58.4,30.10,SSW,192,1.0,2.0,81,0.00,,,0.01,Wunderground v.1.15,2013-05-08 18:52:00,
2013-05-08 14:57:00,64.6,58.3,30.09,SSW,192,0.0,2.0,80,0.00,,,0.01,Wunderground v.1.15,2013-05-08 18:57:00,
2013-05-08 15:02:00,65.3,59.0,30.09,SSW,192,0.0,1.0,80,0.00,,,0.01,Wunderground v.1.15,2013-05-08 19:02:00,
2013-05-08 15:07:00,65.7,60.1,30.09,SSW,192,0.0,1.0,82,0.00,,,0.01,Wunderground v.1.15,2013-05-08 19:07:00,
2013-05-08 15:12:00,65.9,59.2,30.09,NNE,15,0.0,4.0,79,0.00,,,0.01,Wunderground v.1.15,2013-05-08 19:12:00,
2013-05-08 15:17:00,66.1,59.0,30.09,NNE,19,3.0,4.0,78,0.00,,,0.01,Wunderground v.1.15,2013-05-08 19:17:00,
2013-05-08 15:22:00,66.3,59.2,30.09,NNE,19,0.0,1.0,78,0.00,,,0.01,Wunderground v.1.15,2013-05-08 19:22:00,
2013-05-08 15:27:00,66.3,58.9,30.09,NE,47,0.0,3.0,77,0.00,,,0.01,Wunderground v.1.15,2013-05-08 19:27:00,
2013-05-08 15:32:00,66.1,59.4,30.09,NE,47,0.0,1.0,79,0.00,,,0.01,Wunderground v.1.15,2013-05-08 19:32:00,
2013-05-08 15:37:00,65.9,58.5,30.09,NE,47,0.0,1.0,77,0.00,,,0.01,Wunderground v.1.15,2013-05-08 19:37:00,
2013-05-08 15:42:00,65.7,58.3,30.09,NE,47,0.0,0.0,77,0.00,,,0.01,Wunderground v.1.15,2013-05-08 19:42:00,
2013-05-08 15:47:00,65.4,58.0,30.09,NE,47,0.0,2.0,77,0.00,,,0.01,Wunderground v.1.15,2013-05-08 19:47:00,
2013-05-08 15:52:00,65.2,58.5,30.09,NE,47,0.0,0.0,79,0.00,,,0.01,Wunderground v.1.15,2013-05-08 19:52:00,
2013-05-08 15:57:00,65.0,58.3,30.09,NE,47,1.0,1.0,79,0.00,,,0.01,Wunderground v.1.15,2013-05-08 19:57:00,
2013-05-08 16:02:00,64.9,58.2,30.09,NNE,17,1.0,5.0,79,0.00,,,0.01,Wunderground v.1.15,2013-05-08 20:02:00,
2013-05-08 16:07:00,64.8,58.5,30.09,NNE,18,0.0,5.0,80,0.00,,,0.01,Wunderground v.1.15,2013-05-08 20:07:00,
2013-05-08 16:12:00,64.9,58.6,30.09,NE,54,0.0,2.0,80,0.00,,,0.01,Wunderground v.1.15,2013-05-08 20:12:00,
2013-05-08 16:17:00,65.0,59.0,30.09,NE,54,0.0,2.0,81,0.00,,,0.01,Wunderground v.1.15,2013-05-08 20:17:00,
2013-05-08 16:22:00,65.1,58.4,30.09,NE,54,0.0,0.0,79,0.00,,,0.01,Wunderground v.1.15,2013-05-08 20:22:00,
2013-05-08 16:27:00,65.4,59.4,30.08,NE,49,0.0,3.0,81,0.00,,,0.01,Wunderground v.1.15,2013-05-08 20:27:00,
2013-05-08 16:32:00,65.8,58.0,30.08,NE,49,0.0,1.0,76,0.00,,,0.01,Wunderground v.1.15,2013-05-08 20:32:00,
2013-05-08 16:37:00,66.2,59.1,30.08,NE,49,1.0,2.0,78,0.00,,,0.01,Wunderground v.1.15,2013-05-08 20:37:00,
2013-05-08 16:42:00,66.4,58.2,30.08,NE,40,0.0,2.0,75,0.00,,,0.01,Wunderground v.1.15,2013-05-08 20:42:00,
2013-05-08 16:47:00,66.4,58.6,30.08,NNE,15,0.0,5.0,76,0.00,,,0.01,Wunderground v.1.15,2013-05-08 20:47:00,
2013-05-08 16:52:00,66.4,58.6,30.08,NNE,15,1.0,1.0,76,0.00,,,0.01,Wunderground v.1.15,2013-05-08 20:52:00,
2013-05-08 16:57:00,66.6,58.8,30.08,NNE,15,0.0,1.0,76,0.00,,,0.01,Wunderground v.1.15,2013-05-08 20:57:00,
2013-05-08 17:02:00,66.6,58.4,30.08,NNE,15,0.0,0.0,75,0.00,,,0.01,Wunderground v.1.15,2013-05-08 21:02:00,
2013-05-08 17:07:00,66.5,58.0,30.08,NNE,15,0.0,2.0,74,0.00,,,0.01,Wunderground v.1.15,2013-05-08 21:07:00,
2013-05-08 17:12:00,66.4,57.9,30.08,NNE,15,0.0,0.0,74,0.00,,,0.01,Wunderground v.1.15,2013-05-08 21:12:00,
2013-05-08 17:17:00,66.3,58.5,30.08,NNE,15,0.0,0.0,76,0.00,,,0.01,Wunderground v.1.15,2013-05-08 21:17:00,
2013-05-08 17:22:00,66.3,57.8,30.08,NNE,15,0.0,1.0,74,0.00,,,0.01,Wunderground v.1.15,2013-05-08 21:22:00,
2013-05-08 17:27:00,66.3,58.9,30.08,NE,36,0.0,2.0,77,0.00,,,0.01,Wunderground v.1.15,2013-05-08 21:27:00,
2013-05-08 17:32:00,66.3,58.9,30.07,NNE,32,0.0,1.0,77,0.00,,,0.01,Wunderground v.1.15,2013-05-08 21:32:00,
2013-05-08 17:37:00,66.2,58.0,30.08,NE,35,0.0,2.0,75,0.00,,,0.01,Wunderground v.1.15,2013-05-08 21:37:00,
2013-05-08 17:42:00,65.9,57.4,30.08,NNE,32,0.0,0.0,74,0.00,,,0.01,Wunderground v.1.15,2013-05-08 21:42:00,
2013-05-08 17:47:00,65.7,58.3,30.08,North,5,0.0,3.0,77,0.00,,,0.01,Wunderground v.1.15,2013-05-08 21:47:00,
2013-05-08 17:52:00,65.3,57.5,30.09,NW,304,3.0,3.0,76,0.00,,,0.01,Wunderground v.1.15,2013-05-08 21:52:00,
2013-05-08 17:57:00,64.3,58.7,30.10,WNW,284,2.0,4.0,82,0.00,,,0.02,Wunderground v.1.15,2013-05-08 21:57:00,
2013-05-08 18:02:00,62.8,58.2,30.09,WNW,284,1.0,2.0,85,0.11,,,0.03,Wunderground v.1.15,2013-05-08 22:02:00,
2013-05-08 18:07:00,61.6,58.0,30.09,WNW,284,1.0,2.0,88,0.11,,,0.03,Wunderground v.1.15,2013-05-08 22:07:00,
2013-05-08 18:12:00,60.8,58.2,30.09,WNW,284,0.0,1.0,91,0.06,,,0.03,Wunderground v.1.15,2013-05-08 22:12:00,
2013-05-08 18:17:00,60.5,58.5,30.09,WNW,284,0.0,1.0,93,0.04,,,0.03,Wunderground v.1.15,2013-05-08 22:17:00,
2013-05-08 18:22:00,60.4,58.7,30.09,WNW,284,0.0,1.0,94,0.00,,,0.03,Wunderground v.1.15,2013-05-08 22:22:00,
2013-05-08 18:27:00,60.4,59.0,30.09,NW,319,0.0,1.0,95,0.00,,,0.03,Wunderground v.1.15,2013-05-08 22:27:00,
2013-05-08 18:32:00,60.3,58.6,30.09,NW,319,0.0,0.0,94,0.00,,,0.03,Wunderground v.1.15,2013-05-08 22:32:00,
2013-05-08 18:37:00,60.4,59.3,30.09,NW,319,0.0,1.0,96,0.00,,,0.03,Wunderground v.1.15,2013-05-08 22:37:00,
2013-05-08 18:42:00,60.5,59.4,30.09,NW,319,0.0,0.0,96,0.00,,,0.03,Wunderground v.1.15,2013-05-08 22:42:00,
2013-05-08 18:47:00,60.5,59.4,30.09,NW,319,0.0,0.0,96,0.00,,,0.03,Wunderground v.1.15,2013-05-08 22:47:00,
2013-05-08 18:52:00,60.7,59.8,30.09,NW,319,0.0,0.0,97,0.00,,,0.03,Wunderground v.1.15,2013-05-08 22:52:00,
2013-05-08 18:57:00,60.9,59.5,30.09,NW,319,0.0,1.0,95,0.00,,,0.03,Wunderground v.1.15,2013-05-08 22:57:00,
2013-05-08 19:02:00,61.1,59.4,30.09,NW,319,0.0,0.0,94,0.00,,,0.03,Wunderground v.1.15,2013-05-08 23:02:00,
2013-05-08 19:07:00,61.3,59.9,30.09,NW,319,0.0,0.0,95,0.00,,,0.03,Wunderground v.1.15,2013-05-08 23:07:00,
2013-05-08 19:12:00,61.4,59.4,30.10,NW,320,0.0,0.0,93,0.00,,,0.03,Wunderground v.1.15,2013-05-08 23:12:00,
2013-05-08 19:17:00,61.4,59.7,30.10,NW,319,0.0,0.0,94,0.00,,,0.03,Wunderground v.1.15,2013-05-08 23:17:00,
2013-05-08 19:22:00,61.4,59.4,30.10,NW,320,0.0,0.0,93,0.00,,,0.03,Wunderground v.1.15,2013-05-08 23:22:00,
2013-05-08 19:27:00,61.4,59.7,30.10,NW,320,0.0,1.0,94,0.00,,,0.03,Wunderground v.1.15,2013-05-08 23:27:00,
2013-05-08 19:32:00,61.4,59.1,30.10,NW,320,0.0,0.0,92,0.00,,,0.03,Wunderground v.1.15,2013-05-08 23:32:00,
2013-05-08 19:37:00,61.6,59.6,30.10,NW,320,0.0,1.0,93,0.00,,,0.03,Wunderground v.1.15,2013-05-08 23:37:00,
2013-05-08 19:42:00,61.6,58.9,30.10,NE,43,0.0,1.0,91,0.00,,,0.03,Wunderground v.1.15,2013-05-08 23:42:00,
2013-05-08 19:47:00,61.5,58.5,30.10,NE,41,0.0,3.0,90,0.00,,,0.03,Wunderground v.1.15,2013-05-08 23:47:00,
2013-05-08 19:52:00,61.4,59.1,30.10,NE,41,0.0,0.0,92,0.00,,,0.03,Wunderground v.1.15,2013-05-08 23:52:00,
2013-05-08 19:57:00,61.2,58.6,30.11,NE,41,0.0,0.0,91,0.00,,,0.03,Wunderground v.1.15,2013-05-08 23:57:00,
2013-05-08 20:02:00,61.0,58.7,30.11,NE,41,0.0,0.0,92,0.00,,,0.03,Wunderground v.1.15,2013-05-09 00:02:00,
2013-05-08 20:07:00,60.7,58.4,30.11,NE,41,0.0,0.0,92,0.00,,,0.03,Wunderground v.1.15,2013-05-09 00:07:00,
2013-05-08 20:12:00,60.5,58.2,30.12,NE,41,0.0,0.0,92,0.00,,,0.03,Wunderground v.1.15,2013-05-09 00:12:00,
2013-05-08 20:17:00,60.3,58.0,30.11,NE,41,0.0,0.0,92,0.00,,,0.03,Wunderground v.1.15,2013-05-09 00:17:00,
2013-05-08 20:22:00,60.0,57.7,30.12,NE,41,0.0,0.0,92,0.00,,,0.03,Wunderground v.1.15,2013-05-09 00:22:00,
2013-05-08 20:27:00,59.7,57.4,30.13,NE,41,0.0,1.0,92,0.00,,,0.03,Wunderground v.1.15,2013-05-09 00:27:00,
2013-05-08 20:32:00,59.5,57.2,30.13,NE,41,0.0,0.0,92,0.00,,,0.03,Wunderground v.1.15,2013-05-09 00:32:00,
2013-05-08 20:37:00,59.2,57.2,30.12,NE,41,0.0,0.0,93,0.00,,,0.03,Wunderground v.1.15,2013-05-09 00:37:00,
2013-05-08 20:42:00,58.8,57.1,30.13,NE,41,0.0,0.0,94,0.00,,,0.03,Wunderground v.1.15,2013-05-09 00:42:00,
2013-05-08 20:47:00,58.8,57.1,30.13,NE,41,0.0,0.0,94,0.00,,,0.03,Wunderground v.1.15,2013-05-09 00:47:00,
2013-05-08 20:52:00,58.5,56.8,30.13,NE,41,0.0,0.0,94,0.00,,,0.03,Wunderground v.1.15,2013-05-09 00:52:00,
2013-05-08 20:57:00,58.2,56.8,30.13,NE,41,0.0,0.0,95,0.00,,,0.03,Wunderground v.1.15,2013-05-09 00:57:00,
2013-05-08 21:02:00,58.0,56.6,30.13,NE,41,0.0,0.0,95,0.00,,,0.03,Wunderground v.1.15,2013-05-09 01:02:00,
2013-05-08 21:07:00,57.7,56.6,30.13,NE,41,0.0,0.0,96,0.00,,,0.03,Wunderground v.1.15,2013-05-09 01:07:00,
2013-05-08 21:12:00,57.4,56.3,30.13,NE,41,0.0,0.0,96,0.00,,,0.03,Wunderground v.1.15,2013-05-09 01:12:00,
2013-05-08 21:17:00,57.1,56.0,30.14,NE,41,0.0,0.0,96,0.00,,,0.03,Wunderground v.1.15,2013-05-09 01:17:00,
2013-05-08 21:22:00,56.9,56.1,30.13,NE,41,0.0,0.0,97,0.00,,,0.03,Wunderground v.1.15,2013-05-09 01:22:00,
2013-05-08 21:27:00,56.7,55.9,30.13,NE,41,0.0,1.0,97,0.00,,,0.03,Wunderground v.1.15,2013-05-09 01:27:00,
2013-05-08 21:32:00,56.6,55.8,30.14,NE,41,0.0,0.0,97,0.00,,,0.03,Wunderground v.1.15,2013-05-09 01:32:00,
2013-05-08 21:37:00,56.5,55.9,30.14,NE,41,0.0,1.0,98,0.00,,,0.03,Wunderground v.1.15,2013-05-09 01:37:00,
2013-05-08 21:42:00,56.4,55.8,30.14,NE,41,0.0,0.0,98,0.00,,,0.03,Wunderground v.1.15,2013-05-09 01:42:00,
2013-05-08 21:47:00,56.2,55.6,30.15,NE,41,0.0,0.0,98,0.00,,,0.03,Wunderground v.1.15,2013-05-09 01:47:00,
2013-05-08 21:52:00,56.0,55.4,30.15,NE,41,0.0,0.0,98,0.00,,,0.03,Wunderground v.1.15,2013-05-09 01:52:00,
2013-05-08 21:57:00,55.9,55.3,30.15,NE,41,0.0,0.0,98,0.00,,,0.03,Wunderground v.1.15,2013-05-09 01:57:00,
2013-05-08 22:02:00,55.8,55.2,30.15,NE,41,0.0,0.0,98,0.00,,,0.03,Wunderground v.1.15,2013-05-09 02:02:00,
2013-05-08 22:07:00,55.7,55.4,30.15,NE,41,0.0,0.0,99,0.00,,,0.03,Wunderground v.1.15,2013-05-09 02:07:00,
2013-05-08 22:12:00,55.5,55.2,30.15,NE,41,0.0,0.0,99,0.00,,,0.03,Wunderground v.1.15,2013-05-09 02:12:00,
2013-05-08 22:17:00,55.4,55.1,30.15,NE,41,0.0,0.0,99,0.00,,,0.03,Wunderground v.1.15,2013-05-09 02:17:00,
2013-05-08 22:22:00,55.3,55.0,30.15,NE,41,0.0,0.0,99,0.00,,,0.03,Wunderground v.1.15,2013-05-09 02:22:00,
2013-05-08 22:27:00,55.2,54.9,30.15,NE,41,0.0,0.0,99,0.00,,,0.03,Wunderground v.1.15,2013-05-09 02:27:00,
2013-05-08 22:32:00,55.1,55.1,30.15,NE,41,0.0,0.0,100,0.00,,,0.03,Wunderground v.1.15,2013-05-09 02:32:00,
2013-05-08 22:37:00,55.1,55.1,30.15,NE,41,0.0,0.0,100,0.00,,,0.03,Wunderground v.1.15,2013-05-09 02:37:00,
2013-05-08 22:42:00,55.0,55.0,30.16,NE,41,0.0,0.0,100,0.00,,,0.03,Wunderground v.1.15,2013-05-09 02:42:00,
2013-05-08 22:47:00,55.0,55.0,30.16,NE,41,0.0,0.0,100,0.00,,,0.03,Wunderground v.1.15,2013-05-09 02:47:00,
2013-05-08 22:52:00,55.0,55.0,30.16,NE,42,0.0,0.0,100,0.00,,,0.03,Wunderground v.1.15,2013-05-09 02:52:00,
2013-05-08 22:57:00,55.0,55.0,30.16,NE,42,0.0,1.0,100,0.00,,,0.03,Wunderground v.1.15,2013-05-09 02:57:00,
2013-05-08 23:02:00,55.0,55.0,30.16,NE,42,0.0,0.0,100,0.00,,,0.03,Wunderground v.1.15,2013-05-09 03:02:00,
2013-05-08 23:07:00,54.9,54.9,30.16,NE,42,0.0,0.0,100,0.00,,,0.03,Wunderground v.1.15,2013-05-09 03:07:00,
2013-05-08 23:12:00,54.9,54.9,30.16,NE,42,0.0,0.0,100,0.00,,,0.03,Wunderground v.1.15,2013-05-09 03:12:00,
2013-05-08 23:17:00,54.8,54.8,30.15,NE,42,0.0,1.0,100,0.00,,,0.03,Wunderground v.1.15,2013-05-09 03:17:00,
2013-05-08 23:22:00,55.0,55.0,30.15,North,9,0.0,2.0,100,0.00,,,0.03,Wunderground v.1.15,2013-05-09 03:22:00,
2013-05-08 23:27:00,55.1,55.1,30.15,North,9,0.0,2.0,100,0.00,,,0.03,Wunderground v.1.15,2013-05-09 03:27:00,
2013-05-08 23:32:00,55.1,55.1,30.15,North,9,0.0,0.0,100,0.00,,,0.03,Wunderground v.1.15,2013-05-09 03:32:00,
2013-05-08 23:37:00,55.0,55.0,30.15,North,9,0.0,0.0,100,0.00,,,0.03,Wunderground v.1.15,2013-05-09 03:37:00,
2013-05-08 23:42:00,54.9,54.9,30.15,North,9,0.0,0.0,100,0.00,,,0.03,Wunderground v.1.15,2013-05-09 03:42:00,
2013-05-08 23:47:00,54.8,54.8,30.15,North,9,0.0,0.0,100,0.00,,,0.03,Wunderground v.1.15,2013-05-09 03:47:00,
2013-05-08 23:52:00,54.7,54.7,30.15,North,9,0.0,0.0,100,0.00,,,0.03,Wunderground v.1.15,2013-05-09 03:52:00,
2013-05-08 23:57:00,54.6,54.6,30.15,North,9,0.0,0.0,100,0.00,,,0.00,Wunderground v.1.15,2013-05-09 03:57:00,